[[{"header":{"parameterUnit":"m.s-1","parameterCategory":2,"la1":30.2991,"la2":30.254,"lo1":-89.0895,"lo2":-89.0444,"dy":0.0017,"dx":0.0017,"nx":28,"ny":28,"refTime":"2024-08-02T21:00:00:Z","depth":"0","parameterNumber":2,"parameterNumberName":"U-component_of_CURRENTS"},"data":[0,0,0,0,0,0,0,0,0,0,0,0,0,0,0,0,0,0,0,0,0,0,0,0,0,0,0,0,0,0,0,0,0,0,0,0,0,0,0,0,0,0,0,0,0,0,0,0,0,0,0,0,0,0,0,0,0,0,0.1977,0.1978,0,0.2108,0.211,0.2111,0.214,0.214,0.2139,0.2138,0.2203,0.2205,0.2208,0,0,0,0,0,0,0,0,0,0,0,0,0,0.1796,0.1799,0.1977,0.1979,0.1981,0.2108,0.211,0.2111,0.214,0.214,0.2139,0.2138,0.2202,0.2205,0.2208,0,0,0,0,0,0,0,0,0,0,0,0,0,0.1893,0.18,0.1976,0.2013,0.2017,0.2108,0.211,0.2112,0.2141,0.214,0.2139,0.2138,0.2201,0.2205,0.2208,0.225,0,0,0.2219,0.222,0,0,0,0,0,0,0,0,0.1887,0.1899,0.2005,0.201,0.2016,0.2109,0.207,0.2155,0.2141,0.2091,0.2138,0.2137,0.2168,0.2174,0.2198,0.2253,0.2255,0.2219,0.2221,0.2223,0.2224,0,0,0,0,0,0,0,0.1881,0.1894,0.2026,0.2008,0.2014,0.2038,0.205,0.2087,0.213,0.2095,0.2098,0.2118,0.217,0.2195,0.22,0.2256,0.2219,0.2222,0.2224,0.2226,0.2369,0.2371,0,0,0,0,0,0,0.187,0.1888,0.2022,0.203,0.1951,0.2042,0.2056,0.2078,0.2131,0.214,0.2119,0.2119,0.2189,0.2196,0.2202,0.2269,0.2223,0.2226,0.2228,0.2367,0.2369,0.2371,0,0,0,0,0,0,0.1865,0.1881,0.2016,0.1964,0.1983,0.2046,0.2072,0.2081,0.2108,0.215,0.2157,0.2136,0.2189,0.2197,0.2243,0.227,0.2228,0.2231,0.2365,0.2368,0.237,0.2392,0,0,0,0,0,0,0.186,0.1878,0.1893,0.1963,0.1986,0.2078,0.2073,0.2085,0.2123,0.2125,0.2168,0.2173,0.2189,0.2238,0.2247,0.2274,0.2234,0.2363,0.2367,0.237,0.2389,0.2395,0.24,0,0,0,0,0,0.1853,0.1886,0.1893,0.191,0.2004,0.208,0.2094,0.2133,0.2125,0.215,0.2174,0.2171,0.2264,0.2242,0.2252,0.2281,0.2362,0.2366,0.2369,0.2387,0.2394,0.24,0,0,0,0,0,0,0.1822,0.1895,0.1904,0.1958,0.2014,0.2086,0.212,0.2136,0.2177,0.2173,0.2195,0.2203,0.2253,0.2269,0.2244,0.2334,0.2313,0.2318,0.2323,0.233,0.2335,0.2383,0.2237,0,0,0,0,0,0.182,0.186,0.1929,0.1973,0.2001,0.2056,0.209,0.2116,0.2162,0.2179,0.2206,0.2238,0.228,0.2303,0.2338,0.239,0.2517,0.2416,0.2421,0.2426,0.2473,0.2719,0.2753,0.2384,0.2384,0.2384,0,0,0.182,0.1867,0.1889,0.1968,0.2013,0.2063,0.2074,0.2133,0.2164,0.218,0.2225,0.2257,0.2298,0.2354,0.2378,0.2369,0.2592,0.2431,0.2434,0.248,0.2727,0.2764,0.2796,0.2387,0.2386,0.2386,0,0,0.1857,0.1882,0.1934,0.1974,0.2046,0.2076,0.209,0.2159,0.2179,0.2232,0.2251,0.2319,0.2357,0.2419,0.2446,0.2511,0.2611,0.2495,0.2567,0.2804,0.2838,0.2869,0.3061,0.3109,0.2501,0.2501,0.2501,0,0.1856,0.1932,0.1961,0.2016,0.2053,0.2078,0.2134,0.2159,0.2229,0.2285,0.2245,0.2404,0.2405,0.2539,0.2535,0.2529,0.267,0.2531,0.2817,0.2851,0.2883,0.3072,0.3125,0.2502,0.2502,0.2502,0.2502,0,0.1946,0.1987,0.2021,0.2089,0.2121,0.2179,0.2208,0.2252,0.2266,0.2322,0.245,0.2488,0.2606,0.2591,0.2567,0.278,0.2808,0.2796,0.2807,0.2923,0.3112,0.3168,0.2504,0.2504,0.2503,0.2503,0,0,0.2019,0.2073,0.2083,0.2139,0.2166,0.2232,0.2254,0.2353,0.2449,0.2489,0.2651,0.2684,0.2748,0.2786,0.2796,0.2957,0.3248,0.2959,0.2971,0.3161,0.3778,0.3655,0.3704,0.3302,0.3312,0.332,0.3813,0,0.2098,0.2207,0.2186,0.2286,0.237,0.2357,0.2399,0.2475,0.2535,0.2689,0.2768,0.2911,0.2807,0.2894,0.3035,0.3207,0.34,0.3116,0.3628,0.3644,0.3533,0.3766,0.365,0.4068,0.3868,0.3877,0.3884,0,0.2246,0.2293,0.2402,0.2461,0.249,0.2531,0.2664,0.2703,0.2861,0.2913,0.3062,0.3135,0.3346,0.3252,0.3655,0.3486,0.3646,0.3767,0.379,0.3719,0.3627,0.3924,0.4177,0.4048,0.397,0.3963,0.3957,0,0.2417,0.2468,0.2567,0.2589,0.2642,0.2695,0.2717,0.2827,0.2922,0.3114,0.3244,0.3458,0.3624,0.3861,0.3991,0.3902,0.4446,0.4373,0.4433,0.4424,0.445,0.4425,0.4655,0.4741,0.474,0.4739,0.4737,0,0.2592,0.2675,0.2673,0.2746,0.2888,0.2857,0.3028,0.3065,0.32,0.3334,0.3409,0.3573,0.3796,0.4054,0.4172,0.446,0.4616,0.4534,0.4585,0.4442,0.4412,0.4391,0.4294,0.4757,0.4753,0.475,0.4746,0,0.284,0.2815,0.2958,0.2987,0.3002,0.3134,0.3192,0.3287,0.3391,0.3579,0.3657,0.3819,0.4095,0.4291,0.4686,0.471,0.4868,0.5038,0.4804,0.4815,0.4683,0.459,0.4737,0.4603,0.5266,0.5267,0.5267,0,0.2996,0.3097,0.3159,0.3189,0.3211,0.3337,0.3366,0.3419,0.3475,0.3683,0.3765,0.4077,0.419,0.469,0.4853,0.515,0.494,0.5181,0.4971,0.4737,0.4678,0.4408,0.4263,0.5039,0.5037,0.5036,0.5035,0,0.3255,0.327,0.331,0.3381,0.3424,0.3492,0.3519,0.3601,0.3622,0.3757,0.3871,0.4006,0.4403,0.4603,0.4934,0.5072,0.4908,0.516,0.5059,0.4652,0.4255,0.4125,0.4601,0.5024,0.5026,0.5026,0.5027,0.5027,0.3378,0.3453,0.3429,0.35,0.3524,0.3511,0.3522,0.3523,0.3602,0.3656,0.3843,0.3981,0.4341,0.4771,0.4859,0.4951,0.4866,0.4896,0.4858,0.4646,0.4332,0.4722,0.5066,0.5067,0.5068,0.5069,0.507,0,0.3414,0.3417,0.3493,0.3473,0.3444,0.3483,0.3476,0.3422,0.3399,0.3553,0.364,0.3985,0.4242,0.4504,0.4784,0.4702,0.447,0.4592,0.4247,0.4161,0.4713,0.4506,0.4571,0.4571,0.4571,0.4571,0.4572,0.4572,0.3388,0.3384,0.3401,0.3324,0.3311,0.3211,0.3177,0.3139,0.3202,0.3284,0.3442,0.3654,0.4047,0.4445,0.451,0.4443,0.4105,0.3958,0.3883,0.4313,0.4337,0.4359,0.4144,0.4132,0.4132,0.3182,0.3176,0.317]},{"header":{"parameterUnit":"m.s-1","parameterCategory":2,"la1":30.2991,"la2":30.254,"lo1":-89.0895,"lo2":-89.0444,"dy":0.0017,"dx":0.0017,"nx":28,"ny":28,"refTime":"2024-08-02T21:00:00:Z","depth":"0","parameterNumber":3,"parameterNumberName":"V-component_of_CURRENTS"},"data":[0,0,0,0,0,0,0,0,0,0,0,0,0,0,0,0,0,0,0,0,0,0,0,0,0,0,0,0,0,0,0,0,0,0,0,0,0,0,0,0,0,0,0,0,0,0,0,0,0,0,0,0,0,0,0,0,0,0,-0.0201,-0.0201,0,-0.0173,-0.0173,-0.0173,-0.0159,-0.0159,-0.0158,-0.0158,-0.0155,-0.0155,-0.0155,0,0,0,0,0,0,0,0,0,0,0,0,0,-0.0217,-0.0217,-0.0201,-0.0201,-0.02,-0.0173,-0.0173,-0.0173,-0.0159,-0.0159,-0.0158,-0.0158,-0.0155,-0.0155,-0.0155,0,0,0,0,0,0,0,0,0,0,0,0,0,-0.0203,-0.0217,-0.0201,-0.0189,-0.0188,-0.0173,-0.0173,-0.0173,-0.0159,-0.0159,-0.0158,-0.0158,-0.0155,-0.0155,-0.0155,-0.0159,0,0,-0.0155,-0.0155,0,0,0,0,0,0,0,0,-0.0204,-0.0203,-0.0191,-0.019,-0.0188,-0.0168,-0.0177,-0.0169,-0.0159,-0.0171,-0.0158,-0.0158,-0.0161,-0.016,-0.0157,-0.0159,-0.0159,-0.0155,-0.0155,-0.0155,-0.0155,0,0,0,0,0,0,0,-0.0205,-0.0204,-0.0191,-0.0191,-0.0189,-0.0176,-0.0174,-0.0175,-0.0169,-0.017,-0.0169,-0.0163,-0.016,-0.0157,-0.0157,-0.0159,-0.0155,-0.0155,-0.0155,-0.0155,-0.0169,-0.0169,0,0,0,0,0,0,-0.0208,-0.0205,-0.0192,-0.019,-0.0194,-0.0176,-0.0174,-0.0176,-0.0168,-0.0166,-0.0164,-0.0163,-0.0157,-0.0157,-0.0157,-0.0134,-0.0155,-0.0155,-0.0155,-0.0168,-0.0169,-0.0169,0,0,0,0,0,0,-0.0208,-0.0207,-0.0193,-0.0195,-0.0193,-0.0176,-0.0178,-0.0175,-0.0171,-0.0163,-0.0162,-0.0162,-0.0157,-0.0157,-0.0162,-0.0135,-0.0155,-0.0155,-0.0168,-0.0168,-0.0169,-0.0105,0,0,0,0,0,0,-0.0209,-0.0208,-0.0213,-0.0196,-0.0193,-0.0183,-0.0178,-0.0175,-0.0167,-0.0166,-0.0161,-0.016,-0.0157,-0.0162,-0.0162,-0.0135,-0.0155,-0.0168,-0.0168,-0.0169,-0.0107,-0.0104,-0.0101,0,0,0,0,0,-0.021,-0.021,-0.0213,-0.0212,-0.0199,-0.0183,-0.0181,-0.0169,-0.0168,-0.0165,-0.0167,-0.016,-0.0166,-0.0163,-0.0162,-0.0135,-0.0167,-0.0168,-0.0169,-0.0108,-0.0104,-0.0101,0,0,0,0,0,0,-0.0219,-0.0208,-0.0211,-0.0209,-0.0199,-0.018,-0.0175,-0.017,-0.0169,-0.0169,-0.0166,-0.0166,-0.0162,-0.0169,-0.0165,-0.0146,-0.0165,-0.0166,-0.0119,-0.0116,-0.0113,-0.0001,-0.0155,0,0,0,0,0,-0.0225,-0.0222,-0.0212,-0.021,-0.0206,-0.0194,-0.0187,-0.0178,-0.0172,-0.017,-0.017,-0.0171,-0.0165,-0.0157,-0.0164,-0.0151,-0.008,-0.0137,-0.0133,-0.013,-0.0043,0.0101,0.0129,-0.0172,-0.0172,-0.0172,0,0,-0.0226,-0.0221,-0.0219,-0.0211,-0.0203,-0.0192,-0.0189,-0.0176,-0.0156,-0.0171,-0.0156,-0.0166,-0.0165,-0.015,-0.0148,-0.0148,-0.0031,-0.0131,-0.0128,-0.004,0.0104,0.0135,0.0162,-0.0172,-0.0172,-0.0172,0,0,-0.021,-0.0225,-0.021,-0.0207,-0.0194,-0.019,-0.0187,-0.0174,-0.0158,-0.0158,-0.0153,-0.0118,-0.0157,-0.0099,-0.0088,-0.0068,-0.0028,-0.0115,0.0013,0.0149,0.0178,0.0205,0.0252,0.0283,-0.0101,-0.01,-0.01,0,-0.0208,-0.0185,-0.0203,-0.0189,-0.0169,-0.0189,-0.0156,-0.0157,-0.0146,-0.0081,-0.0154,-0.0073,-0.0105,0.0021,0.0007,-0.0046,0.0003,-0.0001,0.0164,0.0192,0.0219,0.0261,0.0295,-0.0098,-0.0098,-0.0098,-0.0098,0,-0.0169,-0.016,-0.0151,-0.014,-0.0136,-0.0109,-0.0111,-0.0088,-0.0092,-0.0049,0.005,0.0031,0.0122,0.0073,0.0036,0.021,0.0167,0.0145,0.0174,0.0255,0.029,0.0324,-0.0093,-0.0094,-0.0095,-0.0096,0,0,-0.0094,-0.0116,-0.0105,-0.006,-0.0093,-0.0048,-0.0042,0.0046,0.0164,0.0132,0.0311,0.0282,0.0336,0.0356,0.0337,0.043,0.058,0.0365,0.0371,0.0449,0.0834,0.0701,0.0724,0.059,0.0598,0.0604,0.0756,0,-0.003,0.0028,-0.0021,0.0057,0.0113,0.0084,0.0133,0.0198,0.0245,0.0394,0.0436,0.0556,0.0422,0.0494,0.0568,0.0603,0.0686,0.0539,0.0717,0.0723,0.0629,0.0767,0.067,0.0791,0.0789,0.0794,0.0799,0,0.0082,0.0107,0.0187,0.0259,0.0283,0.0312,0.0477,0.0513,0.0666,0.0718,0.0846,0.0871,0.1014,0.0874,0.1031,0.0941,0.0914,0.0906,0.0912,0.0824,0.0659,0.0724,0.0853,0.0563,0.0851,0.0847,0.0843,0,0.0273,0.0294,0.0384,0.0394,0.043,0.0503,0.054,0.0664,0.0782,0.0971,0.1099,0.1231,0.1341,0.1363,0.127,0.1192,0.1419,0.1312,0.1172,0.1157,0.1138,0.1109,0.1063,0.147,0.1469,0.1469,0.1468,0,0.0437,0.0523,0.0499,0.056,0.0726,0.0694,0.0907,0.0964,0.1127,0.1321,0.1318,0.1502,0.1479,0.155,0.1435,0.1411,0.1556,0.1271,0.1239,0.1135,0.1106,0.09,0.0739,0.1474,0.1473,0.1472,0.1471,0,0.0676,0.0638,0.076,0.0799,0.0826,0.0969,0.1085,0.1243,0.1358,0.161,0.1681,0.1795,0.1873,0.1788,0.1832,0.1641,0.1443,0.1548,0.1369,0.1313,0.0869,0.0715,0.077,0.0616,0.1465,0.1463,0.1462,0,0.081,0.0888,0.0946,0.0998,0.1019,0.1176,0.1273,0.1375,0.1524,0.1779,0.1925,0.2069,0.217,0.2139,0.1869,0.1696,0.1446,0.1436,0.1281,0.0902,0.071,0.0628,0.0488,0.1243,0.124,0.1238,0.1236,0,0.1037,0.1044,0.11,0.1202,0.13,0.1437,0.1576,0.1727,0.1861,0.206,0.2293,0.2401,0.2336,0.2149,0.1854,0.1667,0.118,0.1375,0.1101,0.0661,0.0473,0.0285,0.1001,0.1213,0.1216,0.1217,0.1218,0.1219,0.1171,0.125,0.127,0.1391,0.1495,0.1647,0.1778,0.1922,0.216,0.2419,0.2516,0.2693,0.2375,0.1982,0.1639,0.0949,0.1034,0.0729,0.0611,0.0593,0.0349,0.0959,0.1045,0.1046,0.1047,0.1048,0.1049,0,0.1279,0.1323,0.1431,0.154,0.167,0.1709,0.1927,0.2052,0.2291,0.2551,0.274,0.273,0.2198,0.1673,0.0803,0.0285,0.0091,0.0015,-0.0118,-0.0199,0.0462,0.0343,0.014,0.014,0.014,0.0141,0.0141,0.0141,0.132,0.1403,0.1451,0.1646,0.1735,0.1915,0.2039,0.2229,0.2438,0.2744,0.2913,0.3052,0.2705,0.1073,-0.0124,-0.0424,-0.0775,-0.0821,-0.0969,-0.0579,-0.0522,-0.0468,-0.0616,-0.1018,-0.1019,-0.1607,-0.1614,-0.1619]}],[{"header":{"parameterUnit":"m.s-1","parameterCategory":2,"la1":30.2991,"la2":30.254,"lo1":-89.0895,"lo2":-89.0444,"dy":0.0017,"dx":0.0017,"nx":28,"ny":28,"refTime":"2024-08-02T21:00:00:Z","depth":"2","parameterNumber":2,"parameterNumberName":"U-component_of_CURRENTS"},"data":[0,0,0,0,0,0,0,0,0,0,0,0,0,0,0,0,0,0,0,0,0,0,0,0,0,0,0,0,0,0,0,0,0,0,0,0,0,0,0,0,0,0,0,0,0,0,0,0,0,0,0,0,0,0,0,0,0,0,0.15,0.1501,0,0.1533,0.1533,0.1533,0.1526,0.1526,0.1525,0.1525,0.1507,0.1507,0.1507,0,0,0,0,0,0,0,0,0,0,0,0,0,0.1429,0.1431,0.15,0.1501,0.1502,0.1533,0.1533,0.1533,0.1526,0.1526,0.1525,0.1525,0.1507,0.1507,0.1507,0,0,0,0,0,0,0,0,0,0,0,0,0,0.1458,0.1431,0.15,0.1504,0.1505,0.1533,0.1533,0.1533,0.1526,0.1526,0.1525,0.1525,0.1507,0.1507,0.1507,0.1517,0,0,0.1507,0.1506,0,0,0,0,0,0,0,0,0.1457,0.1461,0.1503,0.1504,0.1505,0.1527,0.1502,0.1526,0.1526,0.1515,0.1525,0.1524,0.1511,0.1511,0.1515,0.1516,0.1515,0.1506,0.1506,0.1506,0.1506,0,0,0,0,0,0,0,0.1455,0.1459,0.151,0.1503,0.1505,0.1503,0.1506,0.1506,0.1513,0.1516,0.1516,0.1524,0.1511,0.1515,0.1515,0.1515,0.1507,0.1506,0.1506,0.1506,0.1593,0.1596,0,0,0,0,0,0,0.1457,0.1458,0.1509,0.1512,0.1482,0.1505,0.1508,0.1518,0.1514,0.1514,0.1525,0.1524,0.1516,0.1515,0.1514,0.1577,0.1506,0.1506,0.1506,0.1591,0.1594,0.1597,0,0,0,0,0,0,0.1456,0.1462,0.1508,0.1487,0.1493,0.1507,0.1518,0.1519,0.1534,0.1522,0.152,0.154,0.1516,0.1514,0.1545,0.1574,0.1506,0.1506,0.1588,0.1592,0.1595,0.1669,0,0,0,0,0,0,0.1453,0.1461,0.1472,0.1488,0.1495,0.1542,0.1519,0.152,0.1541,0.154,0.1534,0.1531,0.1515,0.1546,0.1545,0.1572,0.1506,0.1585,0.159,0.1594,0.1664,0.1675,0.1684,0,0,0,0,0,0.1451,0.1474,0.1472,0.1479,0.1509,0.1543,0.1547,0.1552,0.1542,0.1561,0.1566,0.1532,0.1574,0.1548,0.1547,0.1574,0.1583,0.1588,0.1594,0.1659,0.1673,0.1684,0,0,0,0,0,0,0.1455,0.1476,0.1475,0.1504,0.1528,0.1543,0.1563,0.1563,0.1582,0.1582,0.1562,0.1561,0.1597,0.1585,0.1556,0.1617,0.1573,0.1579,0.1624,0.1636,0.1646,0.1629,0.1506,0,0,0,0,0,0.1461,0.1479,0.1501,0.1527,0.154,0.1552,0.1567,0.1574,0.1591,0.1598,0.1595,0.1601,0.1618,0.1626,0.1633,0.1666,0.1684,0.1686,0.1697,0.1705,0.1693,0.1768,0.1784,0.1615,0.1614,0.1614,0,0,0.1469,0.1484,0.1494,0.1528,0.1544,0.1576,0.156,0.1594,0.1618,0.1593,0.1627,0.1634,0.1636,0.1676,0.169,0.1669,0.1771,0.1712,0.1719,0.1702,0.1776,0.1792,0.1806,0.1618,0.1618,0.1617,0,0,0.1499,0.1511,0.1537,0.156,0.1594,0.1604,0.1618,0.1643,0.1654,0.1692,0.1685,0.1711,0.1732,0.1742,0.1749,0.1822,0.1822,0.1833,0.187,0.1945,0.1959,0.1971,0.2046,0.2065,0.184,0.184,0.184,0,0.1507,0.1542,0.1553,0.1587,0.161,0.1619,0.1656,0.1674,0.1707,0.1723,0.1713,0.177,0.1759,0.1817,0.1837,0.1841,0.1891,0.1819,0.1957,0.197,0.1981,0.2055,0.2074,0.1844,0.1844,0.1843,0.1843,0,0.1556,0.1586,0.1608,0.1647,0.1676,0.1712,0.1738,0.1764,0.1774,0.179,0.1847,0.1856,0.1895,0.1898,0.1881,0.1963,0.1978,0.1961,0.1921,0.2002,0.2076,0.2094,0.185,0.1849,0.1848,0.1847,0,0,0.1563,0.1626,0.1634,0.1661,0.1709,0.1739,0.1784,0.1828,0.1865,0.1894,0.1954,0.1971,0.1988,0.1997,0.2002,0.204,0.216,0.2035,0.2037,0.2101,0.2348,0.2305,0.2321,0.2182,0.2185,0.2188,0.2378,0,0.1595,0.1662,0.1687,0.1751,0.1787,0.1811,0.1857,0.1898,0.1929,0.199,0.201,0.2072,0.2029,0.2071,0.2107,0.2151,0.2209,0.211,0.2265,0.2269,0.2213,0.234,0.2134,0.2281,0.2396,0.2399,0.2402,0,0.1633,0.1671,0.1738,0.1803,0.1823,0.1866,0.1936,0.1982,0.2056,0.2085,0.2149,0.2181,0.226,0.2208,0.2336,0.2288,0.2322,0.2338,0.2346,0.2282,0.2259,0.2213,0.231,0.2433,0.243,0.2428,0.2426,0,0.1631,0.1705,0.1757,0.1781,0.1858,0.1896,0.1942,0.2013,0.2065,0.2169,0.223,0.232,0.2397,0.2453,0.2489,0.2444,0.2619,0.2571,0.2565,0.2563,0.2399,0.2377,0.2659,0.2659,0.2659,0.2658,0.2658,0,0.1652,0.1696,0.1763,0.1794,0.1854,0.1917,0.1995,0.2045,0.2151,0.2227,0.2299,0.2395,0.2462,0.2562,0.2569,0.2645,0.2709,0.2595,0.2617,0.2423,0.2402,0.2522,0.2503,0.2665,0.2664,0.2662,0.2661,0,0.1645,0.1696,0.1749,0.1828,0.1857,0.1903,0.2014,0.2064,0.2184,0.2296,0.2348,0.25,0.2655,0.271,0.282,0.2763,0.282,0.282,0.2587,0.2576,0.2696,0.2679,0.2859,0.2859,0.2859,0.2859,0.2859,0,0.1641,0.1669,0.1749,0.1769,0.1806,0.1885,0.1928,0.2056,0.2127,0.2353,0.2413,0.2618,0.274,0.2905,0.2861,0.2912,0.2917,0.2706,0.2553,0.2717,0.2721,0.2704,0.2687,0.2389,0.2386,0.2383,0.238,0,0.1602,0.1635,0.1669,0.1715,0.1762,0.1825,0.1921,0.1986,0.215,0.2293,0.2509,0.2645,0.2809,0.2787,0.2818,0.2785,0.2678,0.2645,0.2921,0.2355,0.2286,0.2285,0.2283,0.2353,0.2356,0.2358,0.2359,0.236,0.1543,0.155,0.1587,0.1638,0.1691,0.1756,0.1798,0.1923,0.2069,0.2221,0.2413,0.2526,0.2586,0.2552,0.2518,0.2461,0.2613,0.2454,0.2459,0.2469,0.2364,0.2297,0.2349,0.2352,0.2354,0.2356,0.2358,0,0.1441,0.1473,0.15,0.1555,0.159,0.1671,0.1778,0.1815,0.1962,0.208,0.2227,0.2072,0.2125,0.2216,0.2107,0.21,0.2019,0.2011,0.1895,0.1926,0.1952,0.1815,0.1658,0.1656,0.1653,0.1651,0,0,0.1376,0.1371,0.1405,0.1439,0.1503,0.1548,0.1606,0.1681,0.1771,0.1765,0.1786,0.1917,0.212,0.1819,0.1818,0.1748,0.1803,0.167,0.2237,0.2131,0.2154,0.2225,0.2052,0,0,0,0,0]},{"header":{"parameterUnit":"m.s-1","parameterCategory":2,"la1":30.2991,"la2":30.254,"lo1":-89.0895,"lo2":-89.0444,"dy":0.0017,"dx":0.0017,"nx":28,"ny":28,"refTime":"2024-08-02T21:00:00:Z","depth":"2","parameterNumber":3,"parameterNumberName":"V-component_of_CURRENTS"},"data":[0,0,0,0,0,0,0,0,0,0,0,0,0,0,0,0,0,0,0,0,0,0,0,0,0,0,0,0,0,0,0,0,0,0,0,0,0,0,0,0,0,0,0,0,0,0,0,0,0,0,0,0,0,0,0,0,0,0,-0.0521,-0.0521,0,-0.0556,-0.0556,-0.0557,-0.0593,-0.0594,-0.0594,-0.0594,-0.0672,-0.0673,-0.0675,0,0,0,0,0,0,0,0,0,0,0,0,0,-0.0525,-0.0525,-0.0521,-0.0521,-0.0522,-0.0556,-0.0556,-0.0557,-0.0593,-0.0594,-0.0594,-0.0595,-0.0671,-0.0673,-0.0675,0,0,0,0,0,0,0,0,0,0,0,0,0,-0.0538,-0.0524,-0.0521,-0.0544,-0.0546,-0.0556,-0.0556,-0.0557,-0.0593,-0.0594,-0.0594,-0.0595,-0.067,-0.0673,-0.0675,-0.0675,0,0,-0.0682,-0.0684,0,0,0,0,0,0,0,0,-0.0537,-0.0538,-0.054,-0.0542,-0.0545,-0.0571,-0.0586,-0.0598,-0.0593,-0.0575,-0.0594,-0.0595,-0.0641,-0.0646,-0.0651,-0.0679,-0.0682,-0.0683,-0.0684,-0.0685,-0.0686,0,0,0,0,0,0,0,-0.0536,-0.0537,-0.0535,-0.0541,-0.0544,-0.0566,-0.0568,-0.0588,-0.0605,-0.0577,-0.058,-0.0583,-0.0643,-0.0648,-0.0653,-0.0683,-0.0683,-0.0685,-0.0686,-0.0687,-0.0732,-0.0732,0,0,0,0,0,0,-0.0528,-0.0535,-0.0534,-0.0536,-0.0543,-0.0565,-0.0568,-0.0562,-0.0604,-0.061,-0.0582,-0.0584,-0.0644,-0.065,-0.0656,-0.0678,-0.0685,-0.0687,-0.0689,-0.0733,-0.0732,-0.0732,0,0,0,0,0,0,-0.0528,-0.0527,-0.0532,-0.0537,-0.0539,-0.0564,-0.0557,-0.0562,-0.0568,-0.0607,-0.0615,-0.0583,-0.0644,-0.0652,-0.0679,-0.0681,-0.0688,-0.0691,-0.0733,-0.0733,-0.0732,-0.0711,0,0,0,0,0,0,-0.0528,-0.0527,-0.0524,-0.0536,-0.0539,-0.0527,-0.0557,-0.0562,-0.0569,-0.0572,-0.0611,-0.0619,-0.0646,-0.0675,-0.0681,-0.0684,-0.0693,-0.0733,-0.0733,-0.0732,-0.0712,-0.071,-0.0708,0,0,0,0,0,-0.0528,-0.0511,-0.0523,-0.0524,-0.0532,-0.0526,-0.0528,-0.055,-0.0568,-0.056,-0.0598,-0.0617,-0.0676,-0.0677,-0.0684,-0.0688,-0.0734,-0.0733,-0.0732,-0.0713,-0.071,-0.0708,0,0,0,0,0,0,-0.0507,-0.0514,-0.0527,-0.0513,-0.0517,-0.0532,-0.0529,-0.0544,-0.0567,-0.0577,-0.0617,-0.0627,-0.0653,-0.0668,-0.0667,-0.0698,-0.0707,-0.0708,-0.0689,-0.0687,-0.0685,-0.0697,-0.0695,0,0,0,0,0,-0.0502,-0.0493,-0.0503,-0.0492,-0.0493,-0.0512,-0.0515,-0.0527,-0.0547,-0.0558,-0.0586,-0.062,-0.0654,-0.0669,-0.0695,-0.0709,-0.0739,-0.0715,-0.0713,-0.0711,-0.0725,-0.0762,-0.0766,-0.073,-0.073,-0.0731,0,0,-0.0492,-0.0494,-0.049,-0.0488,-0.0496,-0.049,-0.0515,-0.0512,-0.052,-0.0563,-0.0583,-0.0615,-0.0657,-0.068,-0.0691,-0.0694,-0.0736,-0.0711,-0.0709,-0.0724,-0.0762,-0.0766,-0.0769,-0.073,-0.073,-0.073,0,0,-0.0461,-0.0467,-0.0451,-0.0451,-0.0457,-0.047,-0.0466,-0.0479,-0.0499,-0.0516,-0.056,-0.0597,-0.0627,-0.0669,-0.0693,-0.0694,-0.0726,-0.0692,-0.0693,-0.0729,-0.0732,-0.0736,-0.0775,-0.0782,-0.0689,-0.0689,-0.0689,0,-0.045,-0.0439,-0.0445,-0.0429,-0.0437,-0.0458,-0.045,-0.0464,-0.0488,-0.0513,-0.0517,-0.0595,-0.0627,-0.0682,-0.0688,-0.0692,-0.0717,-0.0699,-0.0727,-0.0732,-0.0736,-0.0775,-0.0784,-0.0688,-0.0688,-0.0688,-0.0688,0,-0.0411,-0.0407,-0.0395,-0.0392,-0.0392,-0.0388,-0.0409,-0.0422,-0.045,-0.0476,-0.0529,-0.0576,-0.0621,-0.0637,-0.0669,-0.0715,-0.0725,-0.0723,-0.0735,-0.0738,-0.0779,-0.0788,-0.0686,-0.0687,-0.0687,-0.0687,0,0,-0.0388,-0.0374,-0.0373,-0.0376,-0.0381,-0.0378,-0.0392,-0.0424,-0.0439,-0.0476,-0.0501,-0.0581,-0.0607,-0.0637,-0.0676,-0.0719,-0.0771,-0.0734,-0.0736,-0.0777,-0.0855,-0.0771,-0.0774,-0.0771,-0.0772,-0.0773,-0.0871,0,-0.0368,-0.0344,-0.0343,-0.0334,-0.0334,-0.0358,-0.0366,-0.0395,-0.0424,-0.0443,-0.0517,-0.054,-0.0604,-0.0611,-0.0675,-0.073,-0.0795,-0.0746,-0.0843,-0.0847,-0.0775,-0.0781,-0.0738,-0.0813,-0.088,-0.0882,-0.0883,0,-0.0351,-0.0339,-0.033,-0.0331,-0.0332,-0.0326,-0.0359,-0.0363,-0.0402,-0.0416,-0.0466,-0.0497,-0.0569,-0.0601,-0.0744,-0.0706,-0.0794,-0.0851,-0.0855,-0.0795,-0.078,-0.0822,-0.0828,-0.0898,-0.0897,-0.0896,-0.0895,0,-0.0367,-0.0341,-0.0343,-0.034,-0.0333,-0.0342,-0.0341,-0.0369,-0.0357,-0.0384,-0.0355,-0.0464,-0.0467,-0.0604,-0.0713,-0.0729,-0.0853,-0.0881,-0.091,-0.0906,-0.0898,-0.0889,-0.1011,-0.1011,-0.1011,-0.101,-0.101,0,-0.0372,-0.0375,-0.0347,-0.0348,-0.0336,-0.0336,-0.0322,-0.0333,-0.0314,-0.0262,-0.0331,-0.0291,-0.0464,-0.0538,-0.0689,-0.0801,-0.0835,-0.092,-0.0924,-0.0886,-0.0875,-0.097,-0.0964,-0.1014,-0.1013,-0.1013,-0.1012,0,-0.0403,-0.0391,-0.0382,-0.0359,-0.0347,-0.0338,-0.0274,-0.0243,-0.0231,-0.0152,-0.0136,-0.0162,-0.0227,-0.0408,-0.0595,-0.0723,-0.0866,-0.0912,-0.085,-0.0843,-0.0917,-0.0909,-0.0969,-0.0966,-0.0965,-0.0963,-0.0962,0,-0.0419,-0.0416,-0.0379,-0.0348,-0.0335,-0.0298,-0.0251,-0.0215,-0.0146,-0.0048,0.0015,-0.0012,0.0027,-0.0211,-0.0459,-0.0699,-0.0787,-0.0829,-0.0857,-0.0914,-0.0913,-0.0907,-0.0902,-0.0858,-0.0856,-0.0854,-0.0853,0,-0.0428,-0.0418,-0.0392,-0.0325,-0.0272,-0.0194,-0.0112,-0.0026,0.0064,0.0176,0.0341,0.0391,0.0188,0.0006,-0.0327,-0.0504,-0.0781,-0.0798,-0.0884,-0.0842,-0.0808,-0.0807,-0.0806,-0.0838,-0.084,-0.0841,-0.0842,-0.0842,-0.042,-0.0394,-0.0339,-0.0271,-0.0195,-0.0054,0.0063,0.0204,0.039,0.0605,0.0587,0.0677,0.0376,0.002,-0.0262,-0.0591,-0.0628,-0.0771,-0.0778,-0.0786,-0.0722,-0.0683,-0.068,-0.0681,-0.0681,-0.0682,-0.0682,0,-0.0373,-0.0333,-0.0272,-0.0153,-0.0024,-0.001,0.0196,0.037,0.0667,0.0787,0.094,0.0721,0.0501,0.0155,-0.0293,-0.0562,-0.0627,-0.0655,-0.0698,-0.071,-0.0722,-0.0657,-0.0598,-0.0598,-0.0598,-0.0598,0,0,-0.0338,-0.0258,-0.0216,0.0002,0.0096,0.0318,0.0467,0.0725,0.0879,0.1074,0.1097,0.1028,0.061,0.0299,-0.0087,-0.0326,-0.0451,-0.0375,-0.0418,-0.0435,-0.0442,-0.0769,-0.0678,0,0,0,0,0]}],[{"header":{"parameterUnit":"m.s-1","parameterCategory":2,"la1":30.2991,"la2":30.254,"lo1":-89.0895,"lo2":-89.0444,"dy":0.0017,"dx":0.0017,"nx":28,"ny":28,"refTime":"2024-08-02T21:00:00:Z","depth":"4","parameterNumber":2,"parameterNumberName":"U-component_of_CURRENTS"},"data":[0,0,0,0,0,0,0,0,0,0,0,0,0,0,0,0,0,0,0,0,0,0,0,0,0,0,0,0,0,0,0,0,0,0,0,0,0,0,0,0,0,0,0,0,0,0,0,0,0,0,0,0,0,0,0,0,0,0,0.0716,0.0717,0,0.0743,0.0743,0.0742,0.0799,0.0801,0.0802,0.0804,0.0874,0.0874,0.0874,0,0,0,0,0,0,0,0,0,0,0,0,0,0.0631,0.0632,0.0716,0.0717,0.0717,0.0743,0.0743,0.0742,0.0799,0.0801,0.0803,0.0805,0.0874,0.0874,0.0874,0,0,0,0,0,0,0,0,0,0,0,0,0,0.0658,0.0633,0.0716,0.0753,0.0757,0.0743,0.0742,0.0742,0.0798,0.0801,0.0803,0.0806,0.0874,0.0874,0.0874,0.0826,0,0,0.0876,0.0876,0,0,0,0,0,0,0,0,0.0657,0.066,0.0747,0.0751,0.0755,0.0776,0.0739,0.0774,0.0798,0.0776,0.0804,0.0807,0.0847,0.085,0.084,0.0829,0.0832,0.0876,0.0876,0.0876,0.0876,0,0,0,0,0,0,0,0.0655,0.0659,0.072,0.0748,0.0753,0.0741,0.0748,0.0745,0.0793,0.0778,0.0784,0.0796,0.0849,0.0839,0.0842,0.0833,0.0876,0.0876,0.0876,0.0876,0.095,0.0951,0,0,0,0,0,0,0.0665,0.0658,0.0719,0.0722,0.0718,0.0741,0.0749,0.0761,0.0792,0.0801,0.0794,0.0799,0.0837,0.0842,0.0845,0.0932,0.0876,0.0876,0.0877,0.0948,0.095,0.0952,0,0,0,0,0,0,0.0663,0.067,0.0718,0.0695,0.0701,0.0741,0.0754,0.0761,0.0793,0.0805,0.0813,0.0826,0.0839,0.0844,0.0891,0.093,0.0877,0.0877,0.0946,0.0949,0.0951,0.1014,0,0,0,0,0,0,0.0661,0.0669,0.0687,0.0696,0.0703,0.0743,0.0753,0.076,0.0797,0.0804,0.0834,0.0841,0.0842,0.0891,0.0892,0.093,0.0877,0.0944,0.0947,0.095,0.101,0.1019,0.1026,0,0,0,0,0,0.0657,0.0671,0.0687,0.0695,0.0724,0.0745,0.0747,0.0779,0.0797,0.0815,0.0846,0.0842,0.0912,0.0892,0.0893,0.0932,0.0942,0.0946,0.095,0.1007,0.1017,0.1026,0,0,0,0,0,0,0.0652,0.0678,0.0697,0.0722,0.0749,0.0758,0.0776,0.0794,0.0826,0.0845,0.0854,0.0863,0.0924,0.0914,0.0892,0.0964,0.0929,0.0933,0.0972,0.0982,0.099,0.1005,0.0878,0,0,0,0,0,0.0655,0.0666,0.07,0.072,0.0739,0.0761,0.0776,0.08,0.0827,0.0845,0.0864,0.0893,0.0928,0.0947,0.0968,0.0993,0.0992,0.1022,0.103,0.1037,0.105,0.1093,0.1106,0.0965,0.0965,0.0964,0,0,0.0659,0.0673,0.0683,0.0718,0.0738,0.0767,0.0776,0.0812,0.0847,0.0845,0.0898,0.0922,0.0944,0.099,0.1015,0.0993,0.1073,0.1042,0.1047,0.1058,0.1098,0.1112,0.1124,0.0967,0.0967,0.0966,0,0,0.0661,0.0688,0.0701,0.0727,0.0771,0.0785,0.0807,0.0839,0.0874,0.0922,0.0941,0.0994,0.1026,0.1054,0.1073,0.1132,0.1119,0.1141,0.1187,0.1228,0.124,0.1251,0.1248,0.1258,0.1139,0.1139,0.1139,0,0.0663,0.069,0.071,0.0737,0.0763,0.0801,0.0833,0.0865,0.0911,0.0941,0.0959,0.104,0.1061,0.1125,0.116,0.1152,0.1159,0.1147,0.1239,0.125,0.1259,0.1254,0.1264,0.1142,0.1142,0.1142,0.1141,0,0.068,0.0712,0.0724,0.0767,0.0796,0.0829,0.0883,0.0926,0.0972,0.1,0.1087,0.1123,0.1184,0.1193,0.1202,0.1281,0.1257,0.1248,0.1213,0.1277,0.1267,0.1277,0.1147,0.1146,0.1145,0.1144,0,0,0.0651,0.0721,0.0729,0.0757,0.0819,0.084,0.0911,0.0973,0.1033,0.1088,0.1168,0.1235,0.1273,0.1298,0.1316,0.1344,0.1417,0.1335,0.1335,0.1329,0.1486,0.1414,0.1416,0.143,0.1433,0.1435,0.1443,0,0.066,0.0706,0.0745,0.0797,0.0826,0.0887,0.0944,0.1009,0.1082,0.1167,0.1228,0.1317,0.1309,0.137,0.1402,0.1419,0.1449,0.1414,0.1427,0.1427,0.1354,0.1428,0.1443,0.145,0.1452,0.1454,0.1455,0,0.0659,0.0691,0.0739,0.0814,0.0837,0.0884,0.0987,0.1051,0.1173,0.124,0.1339,0.14,0.1483,0.1478,0.1532,0.1513,0.1525,0.1515,0.1515,0.1436,0.1374,0.1378,0.1471,0.147,0.1469,0.1468,0.1467,0,0.0603,0.0685,0.0718,0.0743,0.0834,0.0889,0.0962,0.1075,0.1143,0.1317,0.1382,0.1487,0.1563,0.1593,0.1609,0.1589,0.1645,0.1609,0.1542,0.1535,0.1565,0.1554,0.1666,0.1666,0.1666,0.1666,0.1666,0,0.0574,0.0604,0.0707,0.0721,0.0794,0.0878,0.0974,0.1076,0.1216,0.1297,0.1433,0.151,0.1604,0.1649,0.1645,0.1622,0.1682,0.1569,0.155,0.1587,0.1578,0.1569,0.1558,0.1667,0.1667,0.1667,0.1667,0,0.0493,0.0557,0.0597,0.071,0.0763,0.0821,0.0982,0.1047,0.1195,0.1318,0.1384,0.1542,0.1613,0.1659,0.1711,0.1657,0.1647,0.1629,0.1659,0.1637,0.1491,0.1483,0.1541,0.1539,0.1537,0.1536,0.1535,0,0.0454,0.0461,0.0573,0.0613,0.0675,0.0785,0.0859,0.1032,0.1101,0.131,0.1349,0.1502,0.1591,0.1582,0.1648,0.1644,0.1629,0.1604,0.156,0.1511,0.1487,0.1481,0.1476,0.1532,0.1531,0.1531,0.1531,0,0.0369,0.0406,0.0443,0.0531,0.0617,0.0695,0.0825,0.0875,0.1065,0.1189,0.1312,0.14,0.1481,0.1537,0.1569,0.1556,0.1607,0.1585,0.1587,0.1546,0.1501,0.1477,0.1473,0.1524,0.1525,0.1526,0.1526,0,0.0305,0.0312,0.0371,0.0448,0.0538,0.0607,0.0686,0.0794,0.0896,0.1133,0.1168,0.1332,0.1467,0.1492,0.1507,0.1514,0.1481,0.1414,0.1425,0.1433,0.1399,0.1326,0.1298,0,0,0,0,0,0.0246,0.0258,0.0298,0.0383,0.046,0.0528,0.0657,0.0732,0.0919,0.0972,0.1078,0.1165,0.1269,0.1344,0.1328,0.1439,0.1465,0.1412,0.1387,0.1491,0.1498,0.1472,0,0,0,0,0,0,0.0211,0.0238,0.0265,0.0315,0.0362,0.0453,0.0537,0.0656,0.0694,0.0882,0.0936,0.1079,0.1177,0.1261,0.13,0.1321,0.1278,0.1509,0.1505,0.1487,0.1493,0.1499,0.1474,0,0,0,0,0]},{"header":{"parameterUnit":"m.s-1","parameterCategory":2,"la1":30.2991,"la2":30.254,"lo1":-89.0895,"lo2":-89.0444,"dy":0.0017,"dx":0.0017,"nx":28,"ny":28,"refTime":"2024-08-02T21:00:00:Z","depth":"4","parameterNumber":3,"parameterNumberName":"V-component_of_CURRENTS"},"data":[0,0,0,0,0,0,0,0,0,0,0,0,0,0,0,0,0,0,0,0,0,0,0,0,0,0,0,0,0,0,0,0,0,0,0,0,0,0,0,0,0,0,0,0,0,0,0,0,0,0,0,0,0,0,0,0,0,0,0.0141,0.0141,0,0.0102,0.0101,0.0101,0.005,0.0049,0.0048,0.0047,-0.0041,-0.0042,-0.0044,0,0,0,0,0,0,0,0,0,0,0,0,0,0.0145,0.0145,0.0141,0.0141,0.014,0.0102,0.0101,0.0101,0.005,0.0049,0.0048,0.0047,-0.004,-0.0042,-0.0044,0,0,0,0,0,0,0,0,0,0,0,0,0,0.013,0.0145,0.0141,0.0109,0.0105,0.0102,0.0101,0.0101,0.0051,0.0049,0.0048,0.0046,-0.004,-0.0042,-0.0044,-0.0028,0,0,-0.0051,-0.0051,0,0,0,0,0,0,0,0,0.0131,0.013,0.0114,0.0111,0.0107,0.0078,0.007,0.0055,0.0051,0.0073,0.0047,0.0046,-0.0006,-0.0011,-0.0012,-0.0032,-0.0036,-0.0051,-0.0052,-0.0053,-0.0054,0,0,0,0,0,0,0,0.0132,0.0131,0.0127,0.0114,0.0109,0.0086,0.0083,0.0067,0.0043,0.0071,0.0067,0.006,-0.0008,-0.0009,-0.0014,-0.0037,-0.0051,-0.0053,-0.0054,-0.0055,-0.012,-0.012,0,0,0,0,0,0,0.0137,0.0133,0.0128,0.0126,0.0114,0.0088,0.0084,0.009,0.0044,0.0035,0.0062,0.0058,-0.0005,-0.0012,-0.0018,-0.0029,-0.0053,-0.0055,-0.0056,-0.012,-0.012,-0.0121,0,0,0,0,0,0,0.0137,0.0137,0.013,0.0126,0.0123,0.0089,0.0096,0.009,0.0079,0.0037,0.0027,0.0056,-0.0007,-0.0015,-0.0045,-0.0032,-0.0056,-0.0058,-0.0119,-0.012,-0.012,-0.0034,0,0,0,0,0,0,0.0138,0.0138,0.0148,0.0127,0.0123,0.0127,0.0097,0.009,0.0077,0.0072,0.003,0.002,-0.0008,-0.0042,-0.0047,-0.0035,-0.006,-0.0119,-0.0119,-0.012,-0.0036,-0.0031,-0.0027,0,0,0,0,0,0.0138,0.0157,0.0149,0.0148,0.0138,0.0128,0.0124,0.0095,0.0079,0.008,0.0042,0.0021,-0.0052,-0.0043,-0.005,-0.0038,-0.0118,-0.0119,-0.012,-0.0038,-0.0032,-0.0027,0,0,0,0,0,0,0.016,0.0153,0.0144,0.0158,0.0143,0.0118,0.0119,0.01,0.0074,0.0067,0.0023,0.0012,-0.0014,-0.0042,-0.0032,-0.0065,-0.0091,-0.0093,-0.0026,-0.0021,-0.0017,-0.0004,-0.0061,0,0,0,0,0,0.0172,0.0186,0.0167,0.0179,0.0174,0.0149,0.0142,0.0123,0.0096,0.0084,0.0054,0.0014,-0.0019,-0.0033,-0.0067,-0.0073,-0.0119,-0.0076,-0.0071,-0.0067,-0.0064,-0.0146,-0.0148,-0.0124,-0.0124,-0.0124,0,0,0.0183,0.0181,0.0188,0.0184,0.0173,0.0181,0.0141,0.0135,0.014,0.0079,0.0076,0.003,-0.0021,-0.0036,-0.005,-0.0058,-0.0093,-0.0068,-0.0064,-0.0064,-0.0147,-0.0149,-0.0151,-0.0125,-0.0124,-0.0124,0,0,0.0211,0.0212,0.023,0.0228,0.0214,0.0203,0.0202,0.018,0.0167,0.0157,0.0107,0.0065,0.0031,-0.0008,-0.0031,-0.0024,-0.0071,-0.0034,0.0009,-0.0069,-0.0072,-0.0074,-0.0105,-0.0111,-0.0026,-0.0026,-0.0026,0,0.0222,0.0246,0.0232,0.0248,0.025,0.0217,0.0233,0.0226,0.0195,0.0181,0.0162,0.0082,0.0044,0.0008,0.0012,-0.0011,-0.0052,0.0001,-0.0062,-0.0066,-0.007,-0.0101,-0.0109,-0.0022,-0.0022,-0.0023,-0.0023,0,0.0258,0.0282,0.0292,0.0308,0.0309,0.0317,0.0303,0.03,0.0279,0.0255,0.0212,0.0152,0.0096,0.0083,0.0056,0.0011,-0.0005,-0.0048,-0.0068,-0.0067,-0.01,-0.011,-0.0016,-0.0017,-0.0019,-0.002,0,0,0.0265,0.0311,0.0314,0.0329,0.034,0.0339,0.0359,0.035,0.0341,0.031,0.0281,0.0232,0.018,0.0148,0.0098,0.0044,-0.0006,-0.0002,-0.0008,-0.0017,-0.0148,-0.0138,-0.0148,-0.0064,-0.0066,-0.0068,-0.0147,0,0.0293,0.0343,0.0357,0.0396,0.0415,0.0407,0.0422,0.0409,0.0384,0.035,0.0284,0.0234,0.0211,0.017,0.0118,0.0007,-0.0033,0.0022,-0.0161,-0.0166,-0.0146,-0.016,-0.0074,-0.0155,-0.0157,-0.0159,-0.016,0,0.0313,0.0346,0.0398,0.0432,0.0437,0.0458,0.0455,0.0464,0.0423,0.0395,0.0343,0.0275,0.0202,0.0165,0.0017,0.0051,-0.0033,-0.0107,-0.0113,-0.0144,-0.0175,-0.0168,-0.0179,-0.0177,-0.0176,-0.0175,-0.0174,0,0.0306,0.0365,0.0408,0.0424,0.0462,0.0476,0.0489,0.0472,0.0473,0.0412,0.0382,0.0287,0.0218,0.0103,-0.0024,-0.0021,-0.0195,-0.0221,-0.0279,-0.0277,-0.0299,-0.0296,-0.0329,-0.0329,-0.0329,-0.0329,-0.0329,0,0.0321,0.0351,0.0411,0.0432,0.047,0.0485,0.0507,0.0502,0.0484,0.0473,0.0398,0.0351,0.0191,0.0079,-0.0028,-0.0172,-0.0201,-0.027,-0.0308,-0.0256,-0.0248,-0.0304,-0.03,-0.0332,-0.0331,-0.0331,-0.033,0,0.0314,0.0353,0.0404,0.0458,0.0473,0.05,0.0542,0.0554,0.0528,0.0507,0.0485,0.0376,0.023,0.009,-0.0113,-0.0181,-0.0322,-0.0365,-0.0264,-0.0295,-0.0344,-0.0335,-0.044,-0.044,-0.0441,-0.0441,-0.0442,0,0.0322,0.0351,0.0424,0.046,0.0492,0.0536,0.0569,0.0576,0.0584,0.0525,0.0506,0.0367,0.0282,0.003,-0.0124,-0.032,-0.0348,-0.0402,-0.0395,-0.0335,-0.0361,-0.0351,-0.0341,-0.0442,-0.0442,-0.0443,-0.0443,0,0.0342,0.037,0.0417,0.0486,0.0535,0.0583,0.0621,0.0626,0.0621,0.06,0.0512,0.038,0.0216,0.0028,-0.0125,-0.0266,-0.0361,-0.0408,-0.0408,-0.0401,-0.0339,-0.0362,-0.0352,-0.0444,-0.0444,-0.0444,-0.0444,0,0.0359,0.0394,0.0454,0.0506,0.0571,0.0604,0.0628,0.0631,0.0631,0.0569,0.0538,0.0371,0.0271,0.0055,-0.0086,-0.0224,-0.0261,-0.0293,-0.03,-0.03,-0.0237,-0.0135,-0.0213,0,0,0,0,0,0.0371,0.0403,0.0467,0.0518,0.0581,0.0603,0.065,0.0665,0.0655,0.0604,0.0573,0.0427,0.02,0.0094,-0.0044,-0.0104,-0.0289,-0.0269,-0.0329,-0.0453,-0.0451,-0.0401,0,0,0,0,0,0,0.038,0.0438,0.0461,0.0513,0.0541,0.0597,0.0626,0.0626,0.0593,0.0568,0.0447,0.0393,0.017,0.0269,-0.0052,-0.0095,-0.0149,-0.0376,-0.0379,-0.0454,-0.0452,-0.0451,-0.0399,0,0,0,0,0]}]]